Find Starlink 37147

NORAD ID: 68295 Int'l Des: 2026-057 Owner: SPXS Country: US Constellation: starlink operational
LEOCIRCULARRETROGRADE

Live Position

Loading 3D Globe...

About Starlink 37147

Description loading...

Upcoming Passes

Passes for default location (London). Set your location on the main map for personalized predictions.

Altitude History

Loading altitude history...

Two-Line Element Set

1 68295U 26057B 26107.89502539 .00162699 00000-0 10675-2 0 9991
2 68295 97.2865 232.2440 0002040 54.7805 305.3651 15.75266247 4452
Epoch: Apr 17, 2026 • Age: 69 hours

Current Status

Altitude 345.0 km
Velocity 7.70 km/s
Sub-Earth Point 23.63°N, 71.3°W
Launch Date Mar 20, 2026
Age 30 days
Type internet

Technical Details

Classification Payload
Mass 575.00 kg
Dry Mass 530.00 kg
Total Mass 575.00 kg
Length 0.30 m
Diameter 4.10 m
Span 29.00 m
Shape Box + pan
Manufacturer SPXS
Bus Type Starlink V2MO
Phase Status In Orbit
Owner/State SPXS/US

Most Searched